1484323200.64,43383,6.13,71416.5,-10.31,-13.55,-13.69,0,*63
1484323201.85,43384,6.13,71412.8,-10.31,-13.65,-13.69,0,*67
1484323203.08,43385,6.13,71412.5,-10.33,-13.55,-13.69,0,*67
1484323204.32,43386,6.13,71414.5,-10.29,-13.65,-13.69,0,*6C
1484323205.52,43387,6.13,71412.8,-10.31,-13.55,-13.69,0,*67
1484323206.79,43388,6.13,71416.5,-10.33,-13.69,-13.83,0,*61
1484323208.01,43389,6.13,71414.3,-10.31,-13.65,-13.79,0,*6B
1484323209.28,43390,6.13,71418.5,-10.33,-13.69,-13.83,0,*68
1484323210.5,43391,6.13,71418.5,-10.31,-13.65,-13.79,0,*62
1484323211.77,43392,6.13,71416.0,-10.33,-13.61,-13.73,0,*6D
1484323212.99,43393,6.13,71414.0,-10.31,-13.65,-13.79,0,*60
1484323214.23,43394,6.13,71422.5,-10.33,-13.69,-13.73,0,*63
1484323215.44,43395,6.13,71418.8,-10.31,-13.55,-13.69,0,*64
1484323216.64,43396,6.13,71418.0,-10.31,-13.65,-13.69,0,*64
1484323217.85,43397,6.13,71422.3,-10.31,-13.55,-13.69,0,*66
1484323219.08,43398,6.13,71422.5,-10.31,-13.65,-13.79,0,*6B
1484323220.38,43399,6.13,71418.0,-10.33,-13.83,-14.01,0,*68
1484323221.61,43400,6.13,71418.8,-10.31,-13.69,-13.79,0,*61
1484323222.84,43401,6.13,71414.8,-10.31,-13.69,-13.83,0,*65
1484323224.1,43402,6.13,71418.5,-10.29,-13.69,-13.79,0,*6A
1484323225.4,43403,6.13,71414.3,-10.33,-13.83,-14.01,0,*6C
1484323226.64,43404,6.13,71416.5,-10.31,-13.69,-13.97,0,*65
1484323227.94,43405,6.13,71416.0,-10.33,-13.83,-14.01,0,*6A
1484323229.2,43406,6.13,71418.5,-10.33,-13.73,-13.87,0,*6F
1484323230.43,43407,6.13,71418.5,-10.31,-13.69,-13.79,0,*66
1484323231.69,43408,6.13,71412.3,-10.33,-13.73,-13.83,0,*65
1484323232.92,43409,6.13,71414.8,-10.31,-13.69,-13.79,0,*68
1484323234.16,43410,6.13,71414.5,-10.31,-13.69,-13.83,0,*65
1484323235.39,43411,6.13,71414.8,-10.31,-13.69,-13.83,0,*64
1484323236.63,43412,6.13,71412.8,-10.31,-13.69,-13.97,0,*62
1484323237.89,43413,6.13,71414.0,-10.33,-13.69,-13.83,0,*64
1484323239.19,43414,6.13,71416.5,-10.29,-13.79,-13.97,0,*6C
1484323240.49,43415,6.13,71412.0,-10.33,-13.83,-14.01,0,*6B
1484323241.76,43416,6.13,71414.5,-10.33,-13.73,-14.01,0,*67
1484323243.0,43417,6.13,71418.8,-10.31,-13.69,-13.97,0,*67
1484323244.23,43418,6.13,71416.0,-10.31,-13.69,-13.83,0,*6D
1484323245.47,43419,6.13,71416.0,-10.31,-13.69,-13.83,0,*6C
1484323246.73,43420,6.13,71418.5,-10.33,-13.69,-13.87,0,*60
1484323247.96,43421,6.13,71418.3,-10.31,-13.65,-13.83,0,*6B
1484323249.2,43422,6.13,71418.8,-10.31,-13.65,-13.97,0,*6D
1484323250.44,43423,6.13,71418.3,-10.31,-13.69,-13.97,0,*60
1484323251.68,43424,6.13,71420.5,-10.31,-13.69,-14.01,0,*6F
1484323252.89,43425,6.13,71412.5,-10.31,-13.69,-14.11,0,*6F
1484323254.12,43426,6.13,71414.5,-10.31,-13.79,-14.11,0,*6D
1484323255.39,43427,6.13,71414.5,-10.33,-13.73,-14.05,0,*61
1484323256.63,43428,6.13,71416.8,-10.31,-13.69,-14.01,0,*63
1484323257.89,43429,6.13,71418.8,-10.33,-13.87,-14.15,0,*65
1484323259.1,43430,6.13,71414.5,-10.31,-13.69,-14.11,0,*6B
1484323260.31,43431,6.13,71416.3,-10.31,-13.93,-14.11,0,*6F
1484323261.58,43432,6.13,71418.8,-10.31,-13.83,-14.01,0,*6C
1484323262.79,43433,6.13,71420.5,-10.31,-13.93,-14.15,0,*69
1484323264.04,43434,6.13,71420.0,-10.31,-13.83,-14.23,0,*6A
1484323265.31,43435,6.13,71418.3,-10.33,-13.97,-14.15,0,*69
1484323266.61,43436,6.13,71420.5,-10.33,-13.97,-14.05,0,*6B
1484323267.88,43437,6.13,71422.0,-10.33,-13.83,-14.15,0,*6E
1484323269.13,43438,6.13,71422.0,-10.31,-13.97,-14.23,0,*63
1484323270.37,43439,6.13,71420.8,-10.31,-14.01,-14.29,0,*60
1484323271.64,43440,6.13,71418.5,-10.33,-14.15,-14.43,0,*65
1484323272.89,43441,6.13,71416.8,-10.33,-14.15,-14.33,0,*63
1484323274.13,43442,6.13,71418.3,-10.31,-13.97,-14.15,0,*6B
1484323275.41,43443,6.13,71418.0,-10.33,-14.01,-14.29,0,*6F
1484323276.68,43444,6.13,71412.3,-10.33,-13.97,-14.29,0,*60
1484323277.95,43445,6.13,71412.8,-10.33,-13.97,-14.19,0,*62
1484323279.16,43446,6.13,71408.0,-10.31,-13.93,-14.15,0,*6B
1484323280.43,43447,6.13,71412.5,-10.33,-14.01,-14.29,0,*6B
1484323281.7,43448,6.13,71414.0,-10.33,-14.05,-14.29,0,*60
1484323282.97,43449,6.13,71408.0,-10.33,-14.05,-14.33,0,*6A
1484323284.24,43450,6.13,71408.5,-10.33,-14.01,-14.29,0,*6D
1484323285.52,43451,6.13,71406.8,-10.33,-14.05,-14.29,0,*68
1484323286.79,43452,6.13,71408.8,-10.33,-14.01,-14.33,0,*64
1484323288.06,43453,6.13,71408.8,-10.33,-14.01,-14.29,0,*6E
1484323289.33,43454,6.13,71410.3,-10.33,-14.15,-14.43,0,*60
1484323290.6,43455,6.13,71408.0,-10.33,-14.05,-14.33,0,*67
1484323291.87,43456,6.13,71408.5,-10.33,-14.05,-14.33,0,*64
1484323293.14,43457,6.13,71410.5,-10.33,-14.01,-14.29,0,*6A
1484323294.41,43458,6.13,71408.8,-10.33,-14.01,-14.29,0,*65
1484323295.63,43459,6.13,71406.0,-10.35,-14.19,-14.33,0,*60
1484323296.88,43460,6.13,71406.3,-10.35,-14.05,-14.33,0,*67
1484323298.12,43461,6.13,71406.8,-10.35,-14.05,-14.33,0,*66
1484323299.35,43462,6.13,71406.5,-10.35,-14.15,-14.33,0,*64
1484323300.57,43463,6.13,71404.3,-10.35,-14.15,-14.33,0,*65
1484323301.82,43464,6.13,71408.3,-10.33,-14.19,-14.33,0,*68
1484323303.09,43465,6.13,71408.5,-10.33,-14.05,-14.33,0,*64
1484323304.36,43466,6.13,71406.8,-10.33,-14.05,-14.29,0,*6C
1484323305.63,43467,6.13,71408.8,-10.33,-14.05,-14.33,0,*66
1484323306.9,43468,6.13,71408.3,-10.33,-14.19,-14.43,0,*63
1484323308.16,43469,6.13,71404.0,-10.35,-14.05,-14.43,0,*69
1484323309.41,43470,6.13,71406.0,-10.35,-14.05,-14.33,0,*66
1484323310.7,43471,6.13,71406.3,-10.33,-14.01,-14.43,0,*62
1484323311.95,43472,6.13,71406.5,-10.35,-14.01,-14.19,0,*68
1484323313.22,43473,6.13,71404.8,-10.33,-14.01,-14.33,0,*67
1484323314.49,43474,6.13,71408.5,-10.33,-14.01,-14.33,0,*60
1484323315.74,43475,6.13,71406.5,-10.35,-14.05,-14.29,0,*68
1484323317.01,43476,6.13,71408.3,-10.37,-14.11,-14.47,0,*64
1484323318.28,43477,6.13,71406.3,-10.35,-14.01,-14.43,0,*62
1484323319.56,43478,6.13,71404.8,-10.37,-14.11,-14.47,0,*6A
1484323320.84,43479,6.13,71406.5,-10.37,-14.23,-14.47,0,*6A
1484323322.08,43480,6.13,71408.3,-10.37,-14.19,-14.37,0,*62
1484323323.35,43481,6.13,71410.3,-10.35,-14.05,-14.43,0,*6F
1484323324.6,43482,6.13,71408.3,-10.35,-14.15,-14.47,0,*69
1484323325.88,43483,6.13,71414.3,-10.37,-14.11,-14.47,0,*6E
1484323327.13,43484,6.13,71410.3,-10.35,-14.15,-14.43,0,*6B
1484323328.37,43485,6.13,71408.3,-10.35,-14.15,-14.43,0,*6A
1484323329.65,43486,6.13,71406.5,-10.37,-14.23,-14.51,0,*6D
1484323330.89,43487,6.13,71408.3,-10.37,-14.19,-14.61,0,*66
1484323332.14,43488,6.13,71410.5,-10.37,-14.33,-14.37,0,*62
1484323333.39,43489,6.13,71410.5,-10.37,-14.23,-14.61,0,*61
1484323334.63,43490,6.13,71408.0,-10.37,-14.37,-14.61,0,*6C
1484323335.88,43491,6.13,71406.0,-10.37,-14.33,-14.61,0,*69
1484323337.13,43492,6.13,71410.5,-10.35,-14.19,-14.47,0,*64
1484323338.37,43493,6.13,71412.8,-10.35,-14.29,-14.47,0,*66
1484323339.64,43494,6.13,71408.0,-10.37,-14.37,-14.51,0,*6B
1484323340.89,43495,6.13,71408.0,-10.37,-14.33,-14.61,0,*6D
1484323342.13,43496,6.13,71408.5,-10.37,-14.33,-14.61,0,*6E
1484323343.38,43497,6.13,71408.3,-10.35,-14.29,-14.47,0,*62
1484323344.65,43498,6.06,71410.5,-10.37,-14.33,-14.51,0,*63
1484323345.91,43499,6.13,71412.3,-10.37,-14.33,-14.51,0,*62
1484323347.19,43500,6.06,71410.3,-10.37,-14.23,-14.51,0,*62
1484323348.46,43501,6.13,71408.8,-10.37,-14.19,-14.51,0,*6A
1484323349.71,43502,6.13,71412.0,-10.35,-14.19,-14.43,0,*68
1484323350.98,43503,6.13,71410.8,-10.37,-14.23,-14.51,0,*61
1484323352.23,43504,6.13,71412.5,-10.37,-14.19,-14.37,0,*6F
1484323353.47,43505,6.13,71412.8,-10.35,-14.19,-14.43,0,*6F
1484323354.75,43506,6.13,71410.0,-10.37,-14.23,-14.47,0,*63
1484323355.97,43507,6.13,71414.5,-10.35,-14.19,-14.33,0,*6A
1484323357.2,43508,6.13,71412.8,-10.35,-14.29,-14.43,0,*61
1484323358.47,43509,6.13,71408.0,-10.37,-14.33,-14.51,0,*6A
1484323359.72,43510,6.13,71408.8,-10.35,-14.29,-14.47,0,*6C
1484323361.0,43511,6.13,71408.5,-10.37,-14.23,-14.47,0,*65
1484323362.24,43512,6.06,71406.8,-10.35,-14.19,-14.43,0,*69
1484323363.49,43513,6.13,71412.0,-10.37,-14.19,-14.33,0,*6D
1484323364.73,43514,6.13,71412.5,-10.37,-14.19,-14.37,0,*6E
1484323366.01,43515,6.13,71410.3,-10.37,-14.23,-14.47,0,*61
1484323367.29,43516,6.13,71412.8,-10.37,-14.23,-14.47,0,*62
1484323368.54,43517,6.13,71414.0,-10.35,-14.15,-14.43,0,*60
1484323369.81,43518,6.13,71408.5,-10.37,-14.19,-14.47,0,*65
1484323371.03,43519,6.13,71414.8,-10.35,-14.19,-14.37,0,*61
1484323372.28,43520,6.13,71410.3,-10.37,-14.23,-14.37,0,*60
1484323373.53,43521,6.13,71410.0,-10.37,-14.23,-14.37,0,*61
1484323374.78,43522,6.13,71412.8,-10.37,-14.19,-14.37,0,*6B
1484323376.0,43523,6.13,71412.3,-10.35,-14.15,-14.33,0,*60
1484323377.25,43524,6.13,71414.0,-10.37,-14.19,-14.33,0,*69
1484323378.5,43525,6.13,71414.3,-10.35,-14.23,-14.47,0,*60
1484323379.75,43526,6.06,71408.8,-10.37,-14.23,-14.37,0,*66
1484323381.0,43527,6.13,71412.5,-10.37,-14.23,-14.37,0,*67
1484323382.22,43528,6.13,71408.5,-10.35,-14.15,-14.33,0,*6B
1484323383.47,43529,6.13,71408.5,-10.37,-14.23,-14.37,0,*69
1484323384.7,43530,6.06,71410.3,-10.35,-14.15,-14.29,0,*69
1484323385.92,43531,6.13,71410.3,-10.35,-14.15,-14.29,0,*68
1484323387.17,43532,6.13,71410.8,-10.37,-14.19,-14.33,0,*6E
1484323388.39,43533,6.13,71408.3,-10.35,-14.19,-14.29,0,*66
1484323389.61,43534,6.13,71412.3,-10.35,-14.15,-14.29,0,*6D
1484323390.84,43535,6.13,71410.5,-10.35,-14.15,-14.19,0,*6F
1484323392.09,43536,6.13,71408.5,-10.37,-14.19,-14.23,0,*6B
1484323393.33,43537,6.06,71410.8,-10.35,-14.01,-14.19,0,*68
1484323394.58,43538,6.06,71408.5,-10.35,-14.05,-14.19,0,*63
1484323395.83,43539,6.06,71408.0,-10.37,-14.11,-14.33,0,*6D
1484323397.05,43540,6.13,71414.8,-10.35,-14.19,-14.19,0,*61
1484323398.29,43541,6.13,71412.3,-10.35,-14.01,-14.19,0,*69
1484323399.54,43542,6.06,71408.8,-10.37,-14.11,-14.33,0,*61
1484323400.76,43543,6.13,71412.0,-10.35,-14.11,-14.37,0,*66
1484323401.98,43544,6.06,71408.0,-10.35,-14.11,-14.23,0,*64
1484323403.23,43545,6.13,71408.8,-10.37,-14.11,-14.23,0,*67
1484323404.48,43546,6.13,71410.3,-10.35,-14.01,-14.19,0,*6E
1484323405.72,43547,6.13,71410.3,-10.35,-14.01,-14.29,0,*6C
1484323406.97,43548,6.13,71410.0,-10.37,-14.11,-14.19,0,*63
1484323408.22,43549,6.13,71408.8,-10.35,-14.01,-14.19,0,*61
1484323409.46,43550,6.06,71406.8,-10.35,-14.01,-14.19,0,*69
1484323410.71,43551,6.13,71408.5,-10.35,-13.97,-14.15,0,*6C
1484323411.98,43552,6.13,71408.8,-10.35,-13.87,-14.05,0,*6F
1484323413.19,43553,6.06,71404.0,-10.35,-13.93,-14.19,0,*66
1484323414.44,43554,6.06,71404.3,-10.35,-13.97,-14.19,0,*65
1484323415.68,43555,6.13,71410.3,-10.35,-14.01,-14.15,0,*60
1484323416.93,43556,6.13,71408.8,-10.35,-14.01,-14.29,0,*6C
1484323418.18,43557,6.13,71408.0,-10.35,-14.05,-14.29,0,*69
1484323419.46,43558,6.13,71408.5,-10.37,-14.19,-14.47,0,*61
1484323420.7,43559,6.06,71404.0,-10.35,-14.01,-14.19,0,*60
1484323421.95,43560,6.13,71412.0,-10.35,-14.01,-14.29,0,*69
1484323423.18,43561,6.06,71408.5,-10.35,-14.15,-14.29,0,*6D
1484323424.42,43562,6.13,71414.0,-10.35,-14.05,-14.19,0,*6C
1484323425.67,43563,6.06,71408.5,-10.35,-14.05,-14.29,0,*6E
1484323426.89,43564,6.13,71410.0,-10.35,-14.15,-14.19,0,*6B
1484323428.16,43565,6.06,71408.3,-10.37,-14.05,-14.33,0,*61
1484323429.41,43566,6.13,71410.8,-10.37,-14.11,-14.33,0,*67
1484323430.69,43567,6.06,71410.0,-10.37,-14.01,-14.23,0,*66
1484323431.96,43568,6.06,71408.3,-10.37,-14.05,-14.23,0,*6D
1484323433.24,43569,6.06,71410.8,-10.37,-14.01,-14.19,0,*61
1484323434.48,43570,6.06,71412.0,-10.37,-14.11,-14.19,0,*68
1484323435.75,43571,6.13,71412.8,-10.37,-14.05,-14.33,0,*64
1484323437.0,43572,6.13,71408.3,-10.37,-14.19,-14.37,0,*6E
1484323438.25,43573,6.13,71410.3,-10.35,-14.05,-14.33,0,*64
1484323439.53,43574,6.06,71406.0,-10.37,-14.11,-14.47,0,*67
1484323440.77,43575,6.13,71410.0,-10.37,-14.11,-14.37,0,*61
1484323442.02,43576,6.06,71404.5,-10.35,-14.05,-14.29,0,*6A
1484323443.24,43577,6.06,71404.3,-10.35,-14.11,-14.23,0,*64
1484323444.49,43578,6.13,71404.8,-10.37,-14.11,-14.23,0,*69
1484323445.74,43579,6.06,71406.5,-10.37,-14.11,-14.23,0,*68
1484323446.99,43580,6.13,71406.3,-10.37,-14.23,-14.37,0,*6A
1484323448.24,43581,6.13,71408.5,-10.37,-14.19,-14.37,0,*62
1484323449.49,43582,6.13,71408.5,-10.37,-14.19,-14.23,0,*64
1484323450.76,43583,6.13,71406.8,-10.37,-14.05,-14.19,0,*61
1484323452.01,43584,6.06,71408.3,-10.35,-14.01,-14.29,0,*63
1484323453.25,43585,6.13,71408.3,-10.35,-14.05,-14.29,0,*66
1484323454.5,43586,6.06,71408.3,-10.37,-14.11,-14.23,0,*68
1484323455.78,43587,6.06,71406.3,-10.37,-14.05,-14.33,0,*6D
1484323457.05,43588,6.06,71404.5,-10.37,-14.23,-14.47,0,*65
1484323458.33,43589,6.06,71406.3,-10.37,-14.33,-14.47,0,*65
1484323459.55,43590,6.06,71406.8,-10.35,-14.15,-14.33,0,*68
1484323460.82,43591,6.06,71406.3,-10.37,-14.33,-14.47,0,*6C
1484323462.07,43592,6.13,71406.5,-10.37,-14.23,-14.33,0,*6D
1484323463.3,43593,6.13,71410.3,-10.35,-14.15,-14.33,0,*6B
1484323464.54,43594,6.13,71408.8,-10.35,-14.05,-14.29,0,*66
1484323465.82,43595,6.06,71406.8,-10.37,-14.23,-14.47,0,*69
1484323467.06,43596,6.06,71408.5,-10.37,-14.33,-14.37,0,*6C
1484323468.28,43597,6.13,71410.0,-10.35,-14.33,-14.33,0,*6B
1484323469.5,43598,6.06,71410.8,-10.35,-14.23,-14.33,0,*65
1484323470.75,43599,6.06,71410.3,-10.37,-14.23,-14.37,0,*62
1484323471.99,43600,6.06,71410.0,-10.37,-14.19,-14.37,0,*68
1484323473.24,43601,6.13,71412.0,-10.37,-14.23,-14.37,0,*60
1484323474.49,43602,6.06,71410.5,-10.37,-14.19,-14.33,0,*6E
1484323475.76,43603,6.13,71412.0,-10.37,-14.33,-14.47,0,*64
1484323477.01,43604,6.06,71408.5,-10.37,-14.23,-14.33,0,*61
1484323478.26,43605,6.06,71410.8,-10.37,-14.23,-14.37,0,*64
1484323479.51,43606,6.13,71410.8,-10.37,-14.23,-14.33,0,*63
1484323480.76,43607,6.06,71410.8,-10.37,-14.23,-14.33,0,*62
1484323482.02,43608,6.13,71410.8,-10.41,-14.29,-14.43,0,*61
1484323483.27,43609,6.06,71404.0,-10.37,-14.23,-14.37,0,*68
1484323484.5,43610,6.06,71404.8,-10.35,-14.15,-14.29,0,*68
1484323485.72,43611,6.13,71408.5,-10.35,-14.19,-14.23,0,*6F
1484323486.97,43612,6.13,71412.3,-10.37,-14.19,-14.23,0,*6E
1484323488.22,43613,6.13,71412.5,-10.37,-14.11,-14.23,0,*67
1484323489.47,43614,6.06,71410.5,-10.37,-14.11,-14.23,0,*60
1484323490.74,43615,6.06,71410.0,-10.37,-14.05,-14.11,0,*65
1484323491.98,43616,6.06,71414.5,-10.37,-14.11,-14.23,0,*62
1484323493.23,43617,6.06,71414.8,-10.37,-14.11,-14.23,0,*63
1484323494.48,43618,6.13,71414.5,-10.37,-14.11,-14.19,0,*65
1484323495.78,43619,6.06,71412.3,-10.37,-14.05,-14.05,0,*6C
1484323497.03,43620,6.13,71412.5,-10.37,-14.11,-14.33,0,*66
1484323498.27,43621,6.06,71410.0,-10.37,-14.23,-14.37,0,*62
1484323499.52,43622,6.06,71412.5,-10.37,-14.19,-14.33,0,*6C
1484323500.77,43623,6.06,71410.0,-10.37,-14.23,-14.33,0,*64
1484323501.98,43624,6.06,71408.0,-10.35,-14.29,-14.33,0,*6B
1484323503.23,43625,6.06,71408.3,-10.37,-14.23,-14.37,0,*66
1484323504.46,43626,6.06,71410.3,-10.35,-14.15,-14.29,0,*6D
1484323505.74,43627,6.06,71408.0,-10.37,-14.23,-14.47,0,*63
1484323506.98,43628,6.06,71412.3,-10.37,-14.23,-14.37,0,*6B
1484323508.26,43629,6.13,71412.3,-10.37,-14.23,-14.47,0,*6D
1484323509.51,43630,6.06,71410.5,-10.37,-14.23,-14.23,0,*67
1484323510.76,43631,6.06,71408.8,-10.37,-14.19,-14.33,0,*6E
1484323512.01,43632,6.06,71406.8,-10.41,-14.29,-14.37,0,*6B
1484323513.26,43633,6.06,71410.0,-10.37,-14.19,-14.23,0,*6D
1484323514.51,43634,6.13,71410.0,-10.37,-14.19,-14.23,0,*6A
1484323515.75,43635,6.06,71410.3,-10.37,-14.19,-14.19,0,*62
1484323516.98,43636,6.06,71410.5,-10.35,-14.19,-14.23,0,*6A
1484323518.22,43637,6.06,71410.5,-10.37,-14.11,-14.19,0,*68
1484323519.47,43638,6.06,71408.3,-10.35,-14.05,-14.15,0,*6C
1484323520.72,43639,6.13,71414.8,-10.37,-14.11,-14.19,0,*66
1484323521.99,43640,6.13,71412.3,-10.37,-14.05,-14.19,0,*6D
1484323523.23,43641,6.13,71412.5,-10.37,-14.11,-14.11,0,*61
1484323524.48,43642,6.13,71414.8,-10.37,-14.23,-14.33,0,*63
1484323525.73,43643,6.06,71408.5,-10.37,-14.23,-14.37,0,*66
1484323526.98,43644,6.13,71412.0,-10.37,-14.19,-14.23,0,*6D
1484323528.23,43645,6.13,71414.0,-10.37,-14.23,-14.23,0,*65
1484323529.48,43646,6.06,71410.8,-10.37,-14.23,-14.19,0,*6F
1484323530.73,43647,6.06,71408.5,-10.37,-14.11,-14.23,0,*66
1484323531.98,43648,6.06,71408.8,-10.37,-14.19,-14.23,0,*61
1484323533.23,43649,6.13,71412.5,-10.37,-14.23,-14.23,0,*69
1484323534.5,43650,6.13,71412.3,-10.37,-14.37,-14.47,0,*66
1484323535.74,43651,6.06,71408.3,-10.37,-14.33,-14.37,0,*64
1484323536.99,43652,6.06,71410.5,-10.37,-14.33,-14.37,0,*67
1484323538.23,43653,6.06,71410.5,-10.37,-14.23,-14.33,0,*63
1484323539.48,43654,6.13,71410.0,-10.37,-14.23,-14.33,0,*64
1484323540.73,43655,6.06,71410.5,-10.37,-14.19,-14.23,0,*6D
1484323541.98,43656,6.06,71408.8,-10.37,-14.19,-14.23,0,*6E
1484323543.23,43657,6.06,71410.5,-10.37,-14.19,-14.19,0,*66
1484323544.48,43658,6.06,71408.5,-10.37,-14.19,-14.23,0,*60
1484323545.73,43659,6.06,71410.8,-10.37,-14.19,-14.23,0,*61
1484323547.0,43660,6.06,71410.8,-10.37,-14.05,-14.19,0,*6F
1484323548.26,43661,6.06,71408.8,-10.41,-14.15,-14.23,0,*67
1484323549.51,43662,6.06,71414.0,-10.37,-14.11,-14.23,0,*61
1484323550.76,43663,6.06,71412.5,-10.37,-14.19,-14.23,0,*68
1484323552.01,43664,6.06,71414.5,-10.41,-14.15,-14.29,0,*68
1484323553.26,43665,6.06,71412.3,-10.41,-14.23,-14.37,0,*63
1484323554.54,43666,6.06,71412.3,-10.37,-14.05,-14.19,0,*69
1484323555.78,43667,6.06,71414.0,-10.37,-14.19,-14.33,0,*6D
1484323557.06,43668,6.13,71414.5,-10.37,-14.05,-14.23,0,*6E
1484323558.31,43669,6.06,71410.3,-10.37,-14.11,-14.19,0,*63
1484323559.56,43670,6.13,71412.5,-10.37,-14.23,-14.23,0,*63
1484323560.81,43671,6.06,71412.3,-10.37,-14.19,-14.23,0,*6B
1484323562.05,43672,6.06,71410.5,-10.37,-14.11,-14.23,0,*60
1484323563.31,43673,6.06,71410.0,-10.41,-14.11,-14.29,0,*6A
1484323564.53,43674,6.06,71410.3,-10.43,-14.11,-14.29,0,*6F
1484323565.8,43675,6.06,71408.3,-10.37,-14.05,-14.19,0,*6B
1484323567.08,43676,6.13,71412.8,-10.37,-14.05,-14.23,0,*61
1484323568.33,43677,6.13,71410.5,-10.37,-14.11,-14.23,0,*65
1484323569.58,43678,6.06,71410.0,-10.41,-14.15,-14.29,0,*65
1484323570.8,43679,6.06,71408.5,-10.43,-14.29,-14.29,0,*69
1484323572.05,43680,6.06,71410.3,-10.41,-14.23,-14.29,0,*67
1484323573.31,43681,6.06,71410.8,-10.41,-14.15,-14.29,0,*63
1484323574.56,43682,6.06,71408.3,-10.41,-14.11,-14.23,0,*6E
1484323575.82,43683,6.06,71408.0,-10.41,-14.15,-14.29,0,*61
1484323577.07,43684,6.06,71404.0,-10.41,-14.11,-14.23,0,*68
1484323578.29,43685,6.06,71408.0,-10.43,-14.11,-14.15,0,*6E
1484323579.52,43686,6.06,71406.0,-10.43,-14.15,-14.23,0,*6C
1484323580.78,43687,6.06,71408.3,-10.41,-14.11,-14.15,0,*6E
1484323582.03,43688,6.06,71406.5,-10.41,-14.15,-14.15,0,*65
1484323583.31,43689,6.06,71406.5,-10.41,-14.05,-14.23,0,*60
1484323584.57,43690,6.06,71406.0,-10.41,-14.11,-14.23,0,*6D
1484323585.82,43691,6.06,71408.5,-10.41,-14.11,-14.15,0,*69
1484323587.08,43692,6.06,71408.5,-10.41,-14.15,-14.15,0,*6E
1484323588.33,43693,6.13,71408.5,-10.43,-13.97,-14.15,0,*60
1484323589.6,43694,6.13,71410.3,-10.41,-13.97,-14.11,0,*61
1484323590.91,43695,6.06,71406.5,-10.41,-13.83,-13.97,0,*6C
1484323592.18,43696,6.06,71404.5,-10.41,-13.83,-14.11,0,*66
1484323593.45,43697,6.06,71406.3,-10.41,-13.83,-14.11,0,*67
1484323594.76,43698,6.06,71410.3,-10.41,-13.83,-13.97,0,*61
1484323596.03,43699,6.06,71408.8,-10.41,-13.93,-13.97,0,*61
1484323597.3,43700,6.06,71408.0,-10.41,-13.83,-13.93,0,*65
1484323598.57,43701,6.06,71410.5,-10.41,-13.83,-13.93,0,*64
1484323599.88,43702,6.06,71408.8,-10.41,-13.83,-13.97,0,*63
1484323601.12,43703,6.13,71414.0,-10.43,-13.83,-13.93,0,*64
1484323602.39,43704,6.06,71414.8,-10.41,-13.79,-13.93,0,*64
1484323603.68,43705,6.06,71410.8,-10.41,-13.79,-13.83,0,*64
1484323604.94,43706,6.06,71408.0,-10.37,-13.65,-13.79,0,*6E
1484323606.2,43707,6.13,71412.0,-10.41,-13.69,-13.83,0,*67
1484323607.49,43708,6.06,71412.8,-10.41,-13.79,-13.83,0,*69
1484323608.77,43709,6.06,71408.3,-10.41,-13.83,-13.93,0,*6C
1484323610.06,43710,6.06,71408.5,-10.41,-13.83,-13.83,0,*65
1484323611.3,43711,6.13,71412.0,-10.41,-13.93,-13.93,0,*64
1484323612.6,43712,6.06,71408.0,-10.41,-13.83,-13.83,0,*67
1484323613.87,43713,6.06,71408.8,-10.41,-13.83,-13.93,0,*67
1484323615.16,43714,6.06,71410.8,-10.41,-13.79,-13.83,0,*64
1484323616.47,43715,6.06,71410.5,-10.41,-13.83,-13.97,0,*65
1484323617.74,43716,6.06,71410.3,-10.41,-13.83,-14.11,0,*6F
1484323619.01,43717,6.06,71410.0,-10.41,-13.83,-13.93,0,*63
1484323620.28,43718,6.13,71414.0,-10.41,-13.79,-13.93,0,*69
1484323621.54,43719,6.13,71412.3,-10.41,-13.79,-13.93,0,*68
1484323622.84,43720,6.06,71410.0,-10.41,-13.79,-13.97,0,*66
1484323624.14,43721,6.06,71406.5,-10.41,-13.79,-13.97,0,*67
1484323625.44,43722,6.13,71410.8,-10.41,-13.79,-13.97,0,*64
1484323626.73,43723,6.06,71406.0,-10.41,-13.79,-13.83,0,*60
1484323628.0,43724,6.13,71410.3,-10.41,-13.69,-13.83,0,*66
1484323629.24,43725,6.06,71408.5,-10.43,-13.69,-13.83,0,*65
1484323630.53,43726,6.06,71406.8,-10.41,-13.79,-13.83,0,*65
1484323631.79,43727,6.06,71410.5,-10.41,-13.79,-13.93,0,*65
1484323633.06,43728,6.06,71406.3,-10.41,-13.79,-13.93,0,*6A
1484323634.32,43729,6.06,71410.3,-10.41,-13.79,-13.93,0,*6B
1484323635.59,43730,6.06,71410.0,-10.41,-13.79,-13.93,0,*63
1484323636.86,43731,6.13,71408.3,-10.43,-13.79,-13.97,0,*64
1484323638.12,43732,6.06,71406.8,-10.41,-13.79,-14.11,0,*6C
1484323639.39,43733,6.06,71402.5,-10.41,-13.79,-13.93,0,*60
1484323640.65,43734,6.06,71406.5,-10.41,-13.69,-13.83,0,*67
1484323641.9,43735,6.06,71410.0,-10.41,-13.69,-13.93,0,*67
1484323643.16,43736,6.06,71406.3,-10.41,-13.79,-13.93,0,*65
1484323644.42,43737,6.06,71410.8,-10.41,-13.79,-13.93,0,*64
1484323645.69,43738,6.06,71408.8,-10.41,-13.69,-13.83,0,*6B
1484323646.96,43739,6.06,71408.5,-10.41,-13.79,-13.93,0,*6A
1484323648.23,43740,6.06,71406.3,-10.41,-13.93,-13.97,0,*64
1484323649.5,43741,6.06,71410.0,-10.41,-13.83,-13.93,0,*60
1484323650.77,43742,6.06,71404.8,-10.41,-13.83,-13.93,0,*63
1484323652.07,43743,6.06,71410.8,-10.41,-13.83,-13.83,0,*63
1484323653.34,43744,6.06,71406.8,-10.41,-13.93,-13.97,0,*60
1484323654.61,43745,6.06,71406.3,-10.41,-13.93,-13.97,0,*61
1484323655.86,43746,6.13,71408.3,-10.43,-13.83,-13.93,0,*65
1484323657.16,43747,6.06,71404.5,-10.41,-13.83,-13.83,0,*67
1484323658.42,43748,6.06,71410.3,-10.41,-13.69,-13.83,0,*6C
1484323659.7,43749,6.13,71408.8,-10.41,-13.83,-13.93,0,*68
1484323660.94,43750,6.06,71404.0,-10.43,-13.83,-13.93,0,*62
1484323662.24,43751,6.13,71408.8,-10.41,-13.83,-13.83,0,*60
1484323663.54,43752,6.06,71402.3,-10.41,-13.83,-13.83,0,*63
1484323664.83,43753,6.13,71406.5,-10.41,-13.83,-13.83,0,*62
1484323666.1,43754,6.06,71406.8,-10.41,-13.69,-13.79,0,*64
1484323667.39,43755,6.06,71404.3,-10.41,-13.79,-13.83,0,*61
1484323668.67,43756,6.06,71404.8,-10.37,-13.79,-13.79,0,*66
1484323669.96,43757,6.06,71406.0,-10.37,-13.87,-13.87,0,*67
1484323671.26,43758,6.06,71406.0,-10.41,-13.83,-13.83,0,*69
1484323672.53,43759,6.06,71408.5,-10.41,-13.83,-13.93,0,*69
1484323673.74,43760,6.06,71406.3,-10.43,-13.93,-13.93,0,*60
1484323674.98,43761,6.06,71406.8,-10.41,-13.93,-13.93,0,*63
1484323676.24,43762,6.06,71406.0,-10.41,-13.93,-13.83,0,*61
1484323677.54,43763,6.06,71402.3,-10.41,-13.83,-13.83,0,*61
1484323678.81,43764,6.06,71398.8,-10.43,-13.79,-13.83,0,*61
1484323680.05,43765,6.06,71400.0,-10.41,-13.69,-13.69,0,*67
1484323681.34,43766,6.06,71400.3,-10.41,-13.83,-13.79,0,*61
1484323682.59,43767,6.06,71400.5,-10.43,-13.83,-13.93,0,*66
1484323683.86,43768,6.06,71402.0,-10.43,-13.83,-13.83,0,*68
1484323685.16,43769,6.06,71400.0,-10.41,-13.83,-13.83,0,*6B
1484323686.45,43770,6.06,71406.5,-10.41,-13.79,-13.83,0,*66
1484323687.74,43771,6.13,71408.8,-10.41,-13.79,-13.83,0,*67
1484323689.04,43772,6.06,71402.0,-10.41,-13.83,-13.83,0,*61
1484323690.28,43773,6.06,71398.8,-10.41,-13.69,-13.69,0,*60
1484323691.5,43774,6.06,71400.0,-10.43,-13.55,-13.65,0,*66
1484323692.74,43775,6.06,71396.3,-10.41,-13.65,-13.55,0,*65
1484323693.96,43776,6.06,71400.3,-10.43,-13.55,-13.65,0,*64
1484323695.17,43777,6.06,71402.5,-10.43,-13.65,-13.69,0,*6A
1484323696.4,43778,6.13,71404.0,-10.43,-13.69,-13.79,0,*68
1484323697.62,43779,6.06,71404.5,-10.43,-13.65,-13.69,0,*64
1484323698.86,43780,6.06,71406.3,-10.41,-13.55,-13.65,0,*6F
1484323700.1,43781,6.06,71404.8,-10.41,-13.55,-13.55,0,*6D
1484323701.35,43782,6.06,71404.0,-10.41,-13.65,-13.65,0,*6E